| time (UTC) | temp F | wind direction | speed MPH | gust MPH | rain 1hr in | rain 24hr in | rain mn in | humidity % | barometer mb |
| 20260509114036 | 71 | 350 | 1.0 | 5.0 | 0.01 | 0.84 | 0.01 | 96 | 1011.1 |
| 20260509113540 | 71 | 350 | 2.0 | 5.0 | 0.01 | 0.84 | 0.01 | 95 | 1011.1 |
| 20260509113048 | 71 | 350 | 2.0 | 5.0 | 0.01 | 0.84 | 0.01 | 96 | 1011.2 |
| 20260509112536 | 71 | 350 | 2.0 | 4.0 | 0.01 | 0.84 | 0.01 | 96 | 1011.1 |
| 20260509112036 | 71 | 288 | 2.0 | 4.0 | 0.01 | 0.84 | 0.01 | 96 | 1010.9 |
| 20260509111549 | 71 | 288 | 2.0 | 3.0 | 0.01 | 0.84 | 0.01 | 96 | 1010.9 |
| 20260509111035 | 71 | 288 | 0.0 | 2.0 | 0.01 | 0.84 | 0.01 | 96 | 1010.9 |
| 20260509110539 | 71 | 0 | 0.0 | 3.0 | 0.01 | 0.84 | 0.01 | 96 | 1010.7 |
| 20260509110049 | 71 | 0 | 0.0 | 3.0 | 0.01 | 0.84 | 0.01 | 96 | 1010.5 |
| 20260509105536 | 71 | 0 | 0.0 | 3.0 | 0.01 | 0.84 | 0.01 | 95 | 1010.3 |
| 20260509105039 | 71 | 221 | 1.0 | 3.0 | 0.00 | 0.83 | 0.00 | 95 | 1010.3 |
| 20260509104550 | 71 | 0 | 0.0 | 1.0 | 0.00 | 0.83 | 0.00 | 95 | 1010.5 |
| 20260509104037 | 71 | 0 | 0.0 | 0.0 | 0.00 | 0.83 | 0.00 | 95 | 1010.6 |
| 20260509103535 | 71 | 0 | 0.0 | 0.0 | 0.00 | 0.83 | 0.00 | 95 | 1010.6 |
| 20260509103047 | 71 | 0 | 0.0 | 0.0 | 0.00 | 0.83 | 0.00 | 95 | 1010.6 |
| 20260509102536 | 71 | 0 | 0.0 | 4.0 | 0.00 | 0.83 | 0.00 | 95 | 1010.6 |
| 20260509102037 | 71 | 0 | 0.0 | 4.0 | 0.00 | 0.83 | 0.00 | 95 | 1010.7 |
| 20260509101556 | 71 | 283 | 1.0 | 4.0 | 0.00 | 0.83 | 0.00 | 95 | 1010.7 |
| 20260509101037 | 72 | 0 | 0.0 | 2.0 | 0.00 | 0.83 | 0.00 | 95 | 1010.6 |
| 20260509100536 | 71 | 0 | 0.0 | 2.0 | 0.00 | 0.83 | 0.00 | 95 | 1010.6 |
| 20260509100047 | 71 | 148 | 0.0 | 5.0 | 0.00 | 0.83 | 0.00 | 95 | 1010.7 |
| 20260509095536 | 71 | 0 | 0.0 | 5.0 | 0.00 | 0.83 | 0.00 | 95 | 1010.6 |
| 20260509095036 | 71 | 148 | 2.0 | 5.0 | 0.00 | 0.83 | 0.00 | 95 | 1010.4 |
| 20260509094552 | 72 | 132 | 2.0 | 5.0 | 0.00 | 0.83 | 0.00 | 95 | 1010.6 |
| 20260509094038 | 72 | 13 | 2.0 | 5.0 | 0.00 | 0.83 | 0.00 | 94 | 1010.8 |
| 20260509093539 | 72 | 13 | 3.0 | 5.0 | 0.00 | 0.83 | 0.00 | 94 | 1010.9 |
| 20260509093056 | 72 | 360 | 2.0 | 5.0 | 0.00 | 0.83 | 0.00 | 94 | 1010.9 |
| 20260509092538 | 72 | 360 | 2.0 | 5.0 | 0.00 | 0.83 | 0.00 | 94 | 1010.9 |
| 20260509092038 | 72 | 150 | 2.0 | 5.0 | 0.00 | 0.83 | 0.00 | 94 | 1011.0 |
| 20260509091551 | 72 | 150 | 2.0 | 5.0 | 0.00 | 0.83 | 0.00 | 95 | 1011.0 |
| 20260509091036 | 72 | 150 | 0.0 | 2.0 | 0.00 | 0.83 | 0.00 | 94 | 1010.9 |
| 20260509090540 | 72 | 0 | 0.0 | 0.0 | 0.00 | 0.83 | 0.00 | 94 | 1011.0 |
| 20260509090047 | 72 | 0 | 0.0 | 0.0 | 0.00 | 0.83 | 0.00 | 94 | 1011.0 |
| 20260509085536 | 72 | 0 | 0.0 | 0.0 | 0.00 | 0.83 | 0.00 | 94 | 1010.9 |
| 20260509085036 | 72 | 0 | 0.0 | 0.0 | 0.00 | 0.83 | 0.00 | 94 | 1010.9 |
| 20260509084555 | 72 | 0 | 0.0 | 1.0 | 0.00 | 0.83 | 0.00 | 94 | 1010.7 |
| 20260509084038 | 72 | 0 | 0.0 | 1.0 | 0.00 | 0.83 | 0.00 | 94 | 1010.7 |
| 20260509083539 | 72 | 0 | 0.0 | 2.0 | 0.00 | 0.83 | 0.00 | 94 | 1010.9 |
| 20260509083047 | 72 | 0 | 0.0 | 2.0 | 0.00 | 0.83 | 0.00 | 94 | 1010.9 |
| 20260509082536 | 72 | 0 | 0.0 | 2.0 | 0.00 | 0.83 | 0.00 | 94 | 1010.9 |
| 20260509082037 | 72 | 0 | 0.0 | 2.0 | 0.00 | 0.83 | 0.00 | 94 | 1010.8 |
| 20260509081550 | 72 | 0 | 0.0 | 0.0 | 0.00 | 0.83 | 0.00 | 94 | 1010.9 |
| 20260509081039 | 72 | 0 | 0.0 | 0.0 | 0.00 | 0.83 | 0.00 | 94 | 1011.0 |
| 20260509080536 | 72 | 0 | 0.0 | 0.0 | 0.00 | 0.83 | 0.00 | 94 | 1011.2 |
| 20260509080055 | 72 | 0 | 0.0 | 0.0 | 0.00 | 0.83 | 0.00 | 94 | 1011.3 |
| 20260509075536 | 72 | 0 | 0.0 | 0.0 | 0.00 | 0.83 | 0.00 | 94 | 1011.5 |
| 20260509075039 | 72 | 0 | 0.0 | 2.0 | 0.00 | 0.83 | 0.00 | 94 | 1011.6 |
| 20260509074547 | 72 | 0 | 0.0 | 2.0 | 0.00 | 0.83 | 0.00 | 94 | 1011.6 |
| 20260509074036 | 72 | 0 | 0.0 | 2.0 | 0.00 | 0.83 | 0.00 | 94 | 1011.5 |
| 20260509073536 | 72 | 0 | 0.0 | 2.0 | 0.00 | 0.83 | 0.00 | 94 | 1011.6 |
| 20260509073048 | 72 | 0 | 0.0 | 2.0 | 0.00 | 0.83 | 0.00 | 94 | 1011.5 |
| 20260509072537 | 72 | 0 | 0.0 | 2.0 | 0.00 | 0.83 | 0.00 | 94 | 1011.3 |
| 20260509072035 | 72 | 0 | 0.0 | 2.0 | 0.00 | 0.83 | 0.00 | 94 | 1011.3 |
| 20260509071548 | 72 | 150 | 0.0 | 1.0 | 0.00 | 0.83 | 0.00 | 94 | 1011.3 |
| 20260509071036 | 72 | 0 | 0.0 | 1.0 | 0.00 | 0.83 | 0.00 | 94 | 1011.2 |
| 20260509070537 | 72 | 0 | 0.0 | 3.0 | 0.00 | 0.83 | 0.00 | 94 | 1011.1 |
| 20260509070054 | 72 | 0 | 0.0 | 3.0 | 0.00 | 0.83 | 0.00 | 94 | 1011.0 |
| 20260509065535 | 72 | 150 | 1.0 | 5.0 | 0.00 | 0.83 | 0.00 | 94 | 1010.9 |
| 20260509065037 | 72 | 150 | 1.0 | 6.0 | 0.00 | 0.83 | 0.00 | 94 | 1010.8 |
| 20260509064546 | 72 | 150 | 1.0 | 6.0 | 0.00 | 0.83 | 0.00 | 94 | 1010.7 |
| 20260509064037 | 72 | 173 | 2.0 | 5.0 | 0.00 | 0.83 | 0.00 | 93 | 1010.6 |
| 20260509063536 | 72 | 189 | 1.0 | 4.0 | 0.00 | 0.83 | 0.00 | 93 | 1010.6 |
| 20260509063049 | 72 | 0 | 1.0 | 4.0 | 0.00 | 0.83 | 0.00 | 93 | 1010.8 |
| 20260509062536 | 72 | 0 | 1.0 | 3.0 | 0.00 | 0.83 | 0.00 | 93 | 1010.9 |
| 20260509062037 | 72 | 146 | 0.0 | 2.0 | 0.00 | 0.83 | 0.00 | 93 | 1010.9 |
| 20260509061543 | 72 | 0 | 0.0 | 4.0 | 0.00 | 0.83 | 0.00 | 93 | 1011.0 |
| 20260509061037 | 72 | 146 | 0.0 | 5.0 | 0.00 | 0.83 | 0.00 | 93 | 1010.9 |
| 20260509060536 | 71 | 146 | 1.0 | 6.0 | 0.00 | 0.83 | 0.00 | 93 | 1010.9 |
| 20260509060049 | 71 | 171 | 1.0 | 6.0 | 0.00 | 0.83 | 0.00 | 93 | 1010.9 |
| 20260509055536 | 71 | 168 | 1.0 | 5.0 | 0.00 | 0.83 | 0.00 | 93 | 1010.9 |
| 20260509055035 | 71 | 168 | 1.0 | 6.0 | 0.00 | 0.83 | 0.00 | 93 | 1010.8 |
| 20260509054554 | 71 | 168 | 2.0 | 6.0 | 0.00 | 0.83 | 0.00 | 93 | 1010.9 |
| 20260509054036 | 71 | 168 | 2.0 | 6.0 | 0.00 | 0.83 | 0.00 | 93 | 1010.9 |
| 20260509053537 | 71 | 146 | 2.0 | 5.0 | 0.00 | 0.83 | 0.00 | 93 | 1011.0 |
| 20260509053047 | 71 | 0 | 1.0 | 4.0 | 0.00 | 0.83 | 0.00 | 93 | 1011.2 |
| 20260509052537 | 71 | 0 | 0.0 | 5.0 | 0.00 | 0.83 | 0.00 | 93 | 1011.1 |
| 20260509052038 | 71 | 0 | 1.0 | 5.0 | 0.00 | 0.83 | 0.00 | 93 | 1011.1 |
| 20260509051557 | 71 | 161 | 1.0 | 5.0 | 0.00 | 0.83 | 0.00 | 92 | 1011.1 |
| 20260509051036 | 71 | 161 | 1.0 | 5.0 | 0.00 | 0.83 | 0.00 | 92 | 1011.1 |
| 20260509050536 | 71 | 0 | 1.0 | 6.0 | 0.00 | 0.83 | 0.00 | 92 | 1011.0 |
| 20260509050048 | 71 | 0 | 3.0 | 6.0 | 0.00 | 0.83 | 0.00 | 92 | 1010.9 |
| 20260509045536 | 71 | 137 | 3.0 | 6.0 | 0.00 | 0.83 | 0.83 | 92 | 1010.8 |
| 20260509045036 | 71 | 136 | 2.0 | 7.0 | 0.00 | 0.83 | 0.83 | 92 | 1010.8 |
| 20260509044547 | 71 | 123 | 1.0 | 7.0 | 0.00 | 0.83 | 0.83 | 92 | 1010.8 |
| 20260509044041 | 71 | 138 | 4.0 | 8.0 | 0.00 | 0.83 | 0.83 | 92 | 1010.7 |
| 20260509043539 | 71 | 138 | 4.0 | 9.0 | 0.00 | 0.83 | 0.83 | 92 | 1010.7 |
| 20260509043050 | 71 | 151 | 4.0 | 11.0 | 0.00 | 0.83 | 0.83 | 92 | 1010.8 |
| 20260509042537 | 71 | 139 | 5.0 | 11.0 | 0.00 | 0.83 | 0.83 | 92 | 1010.7 |
| 20260509042036 | 71 | 175 | 5.0 | 11.0 | 0.00 | 0.83 | 0.83 | 92 | 1010.7 |
| 20260509041551 | 71 | 144 | 6.0 | 11.0 | 0.00 | 0.83 | 0.83 | 93 | 1010.6 |
| 20260509041036 | 71 | 133 | 4.0 | 8.0 | 0.00 | 0.83 | 0.83 | 93 | 1010.7 |
| 20260509040536 | 71 | 133 | 3.0 | 8.0 | 0.00 | 0.83 | 0.83 | 93 | 1010.8 |
| 20260509040049 | 71 | 151 | 3.0 | 6.0 | 0.00 | 0.83 | 0.83 | 92 | 1010.8 |
| 20260509035539 | 71 | 159 | 2.0 | 5.0 | 0.00 | 0.83 | 0.83 | 92 | 1010.7 |
| 20260509035039 | 71 | 159 | 2.0 | 5.0 | 0.00 | 0.83 | 0.83 | 92 | 1010.7 |
| 20260509034550 | 71 | 159 | 1.0 | 4.0 | 0.00 | 0.83 | 0.83 | 92 | 1010.7 |
| 20260509034035 | 71 | 0 | 0.0 | 1.0 | 0.00 | 0.83 | 0.83 | 92 | 1010.7 |
| 20260509033537 | 71 | 0 | 0.0 | 0.0 | 0.00 | 0.83 | 0.83 | 92 | 1010.7 |
| 20260509033100 | 71 | 0 | 0.0 | 1.0 | 0.00 | 0.83 | 0.83 | 92 | 1010.7 |
| 20260509032536 | 71 | 0 | 0.0 | 1.0 | 0.00 | 0.83 | 0.83 | 92 | 1010.7 |
| 20260509032037 | 71 | 0 | 0.0 | 0.0 | 0.00 | 0.83 | 0.83 | 92 | 1010.6 |
| 20260509031552 | 71 | 0 | 0.0 | 0.0 | 0.00 | 0.83 | 0.83 | 92 | 1010.6 |
| 20260509031039 | 71 | 0 | 0.0 | 0.0 | 0.00 | 0.83 | 0.83 | 91 | 1010.4 |
| 20260509030540 | 71 | 0 | 0.0 | 0.0 | 0.00 | 0.83 | 0.83 | 91 | 1010.3 |
| 20260509030052 | 71 | 0 | 0.0 | 0.0 | 0.00 | 0.83 | 0.83 | 91 | 1010.3 |
| 20260509025539 | 72 | 0 | 0.0 | 4.0 | 0.00 | 0.83 | 0.83 | 91 | 1010.2 |
| 20260509025036 | 72 | 0 | 0.0 | 5.0 | 0.00 | 0.83 | 0.83 | 92 | 1010.1 |
| 20260509024546 | 72 | 159 | 1.0 | 5.0 | 0.00 | 0.83 | 0.83 | 92 | 1010.0 |
| 20260509024036 | 72 | 213 | 1.0 | 6.0 | 0.00 | 0.83 | 0.83 | 91 | 1010.0 |
| 20260509023536 | 72 | 164 | 1.0 | 6.0 | 0.00 | 0.83 | 0.83 | 91 | 1009.9 |
| 20260509023051 | 72 | 159 | 2.0 | 5.0 | 0.00 | 0.83 | 0.83 | 91 | 1009.8 |
| 20260509022539 | 72 | 129 | 1.0 | 2.0 | 0.00 | 0.83 | 0.83 | 91 | 1009.8 |
| 20260509022036 | 72 | 129 | 0.0 | 2.0 | 0.00 | 0.83 | 0.83 | 91 | 1009.8 |
| 20260509021550 | 73 | 0 | 0.0 | 2.0 | 0.00 | 0.83 | 0.83 | 91 | 1009.9 |
| 20260509021036 | 73 | 0 | 0.0 | 3.0 | 0.00 | 0.83 | 0.83 | 91 | 1009.8 |
| 20260509020539 | 73 | 0 | 1.0 | 7.0 | 0.00 | 0.83 | 0.83 | 91 | 1009.8 |
| 20260509020047 | 73 | 0 | 1.0 | 7.0 | 0.00 | 0.83 | 0.83 | 90 | 1009.6 |
| 20260509015539 | 73 | 129 | 2.0 | 7.0 | 0.00 | 0.83 | 0.83 | 90 | 1009.6 |
| 20260509015039 | 73 | 150 | 2.0 | 6.0 | 0.00 | 0.83 | 0.83 | 90 | 1009.5 |
| 20260509014549 | 73 | 124 | 2.0 | 6.0 | 0.00 | 0.83 | 0.83 | 90 | 1009.6 |
| 20260509014036 | 73 | 143 | 2.0 | 5.0 | 0.00 | 0.83 | 0.83 | 90 | 1009.7 |
| 20260509013536 | 73 | 165 | 1.0 | 7.0 | 0.00 | 0.83 | 0.83 | 89 | 1009.6 |
| 20260509013053 | 73 | 157 | 2.0 | 7.0 | 0.00 | 0.83 | 0.83 | 89 | 1009.6 |
| 20260509012536 | 73 | 147 | 2.0 | 7.0 | 0.00 | 0.83 | 0.83 | 89 | 1009.4 |
| 20260509012036 | 73 | 117 | 3.0 | 8.0 | 0.00 | 0.83 | 0.83 | 89 | 1009.3 |
| 20260509011556 | 73 | 111 | 2.0 | 8.0 | 0.00 | 0.83 | 0.83 | 89 | 1009.3 |
| 20260509011039 | 74 | 127 | 3.0 | 8.0 | 0.00 | 0.83 | 0.83 | 89 | 1009.3 |
| 20260509010538 | 74 | 118 | 3.0 | 6.0 | 0.00 | 0.83 | 0.83 | 89 | 1009.3 |
| 20260509010051 | 74 | 132 | 2.0 | 6.0 | 0.00 | 0.83 | 0.83 | 89 | 1009.4 |
| 20260509005536 | 74 | 130 | 2.0 | 7.0 | 0.00 | 0.83 | 0.83 | 88 | 1009.4 |
| 20260509005040 | 74 | 164 | 2.0 | 7.0 | 0.00 | 0.83 | 0.83 | 88 | 1009.4 |
| 20260509004559 | 74 | 131 | 3.0 | 7.0 | 0.00 | 0.83 | 0.83 | 88 | 1009.4 |
| 20260509004037 | 74 | 123 | 2.0 | 6.0 | 0.00 | 0.83 | 0.83 | 87 | 1009.6 |
| 20260509003537 | 75 | 111 | 1.0 | 6.0 | 0.00 | 0.83 | 0.83 | 87 | 1009.6 |
| 20260509003049 | 75 | 111 | 2.0 | 6.0 | 0.00 | 0.83 | 0.83 | 87 | 1009.5 |
| 20260509002538 | 75 | 126 | 1.0 | 6.0 | 0.00 | 0.83 | 0.83 | 86 | 1009.6 |
| 20260509002037 | 75 | 144 | 2.0 | 4.0 | 0.00 | 0.83 | 0.83 | 86 | 1009.6 |
| 20260509001547 | 75 | 0 | 1.0 | 4.0 | 0.00 | 0.83 | 0.83 | 86 | 1009.6 |
| 20260509001040 | 75 | 68 | 1.0 | 6.0 | 0.00 | 0.83 | 0.83 | 86 | 1009.5 |
| 20260509000541 | 76 | 109 | 2.0 | 6.0 | 0.00 | 0.83 | 0.83 | 85 | 1009.6 |
| 20260509000049 | 76 | 71 | 1.0 | 6.0 | 0.00 | 0.83 | 0.83 | 86 | 1009.7 |
| 20260508235536 | 76 | 111 | 2.0 | 6.0 | 0.00 | 0.83 | 0.83 | 85 | 1009.6 |
| 20260508235037 | 76 | 0 | 1.0 | 6.0 | 0.00 | 0.83 | 0.83 | 86 | 1009.7 |
| 20260508234550 | 75 | 107 | 2.0 | 6.0 | 0.00 | 0.83 | 0.83 | 86 | 1009.8 |
| 20260508234037 | 75 | 107 | 2.0 | 4.0 | 0.00 | 0.83 | 0.83 | 85 | 1009.9 |
| 20260508233536 | 75 | 107 | 0.0 | 6.0 | 0.00 | 0.83 | 0.83 | 85 | 1009.9 |
| 20260508233110 | 75 | 107 | 2.0 | 6.0 | 0.00 | 0.83 | 0.83 | 85 | 1009.9 |
| 20260508232536 | 75 | 107 | 2.0 | 6.0 | 0.00 | 0.83 | 0.83 | 85 | 1010.0 |
| 20260508232038 | 75 | 107 | 1.0 | 7.0 | 0.00 | 0.83 | 0.83 | 85 | 1010.2 |
| 20260508231553 | 76 | 107 | 3.0 | 7.0 | 0.00 | 0.83 | 0.83 | 84 | 1010.2 |
| 20260508231039 | 76 | 107 | 2.0 | 6.0 | 0.00 | 0.83 | 0.83 | 84 | 1010.2 |
| 20260508230538 | 76 | 55 | 1.0 | 4.0 | 0.00 | 0.83 | 0.83 | 85 | 1010.2 |
| 20260508230055 | 76 | 0 | 0.0 | 4.0 | 0.00 | 0.83 | 0.83 | 85 | 1010.1 |
| 20260508225539 | 76 | 168 | 0.0 | 6.0 | 0.00 | 0.83 | 0.83 | 85 | 1010.2 |
| 20260508225040 | 76 | 168 | 2.0 | 6.0 | 0.00 | 0.83 | 0.83 | 84 | 1010.2 |
| 20260508224610 | 76 | 0 | 0.0 | 4.0 | 0.00 | 0.83 | 0.83 | 84 | 1010.0 |
| 20260508224040 | 76 | 0 | 1.0 | 4.0 | 0.00 | 0.83 | 0.83 | 84 | 1010.1 |
| 20260508223539 | 76 | 0 | 1.0 | 4.0 | 0.00 | 0.83 | 0.83 | 85 | 1010.1 |
| 20260508223052 | 76 | 139 | 0.0 | 5.0 | 0.00 | 0.83 | 0.83 | 84 | 1010.1 |
| 20260508222537 | 76 | 132 | 1.0 | 5.0 | 0.00 | 0.83 | 0.83 | 84 | 1010.2 |
| 20260508222036 | 76 | 136 | 2.0 | 5.0 | 0.00 | 0.83 | 0.83 | 83 | 1010.4 |
| 20260508221553 | 76 | 129 | 2.0 | 6.0 | 0.00 | 0.83 | 0.83 | 83 | 1010.4 |
| 20260508221037 | 77 | 104 | 2.0 | 6.0 | 0.00 | 0.83 | 0.83 | 82 | 1010.2 |
| 20260508220535 | 77 | 94 | 0.0 | 6.0 | 0.00 | 0.83 | 0.83 | 83 | 1010.2 |
| 20260508220048 | 77 | 94 | 2.0 | 7.0 | 0.00 | 0.83 | 0.83 | 82 | 1010.2 |
| 20260508215539 | 77 | 0 | 1.0 | 7.0 | 0.00 | 0.83 | 0.83 | 83 | 1010.2 |
| 20260508215038 | 77 | 5 | 1.0 | 7.0 | 0.00 | 0.83 | 0.83 | 82 | 1010.1 |
| 20260508214550 | 77 | 0 | 2.0 | 7.0 | 0.00 | 0.83 | 0.83 | 81 | 1010.2 |
| 20260508214040 | 78 | 132 | 1.0 | 6.0 | 0.00 | 0.83 | 0.83 | 83 | 1010.1 |
| 20260508213538 | 77 | 0 | 2.0 | 4.0 | 0.00 | 0.83 | 0.83 | 83 | 1010.2 |
| 20260508213048 | 77 | 147 | 1.0 | 6.0 | 0.00 | 0.83 | 0.83 | 83 | 1010.2 |
| 20260508212538 | 77 | 147 | 2.0 | 6.0 | 0.00 | 0.83 | 0.83 | 82 | 1010.3 |
| 20260508212038 | 76 | 205 | 2.0 | 7.0 | 0.00 | 0.83 | 0.83 | 83 | 1010.4 |
| 20260508211549 | 76 | 0 | 3.0 | 7.0 | 0.00 | 0.83 | 0.83 | 83 | 1010.4 |
| 20260508211037 | 76 | 0 | 0.0 | 10.0 | 0.00 | 0.83 | 0.83 | 84 | 1010.4 |
| 20260508210537 | 75 | 107 | 1.0 | 10.0 | 0.00 | 0.83 | 0.83 | 84 | 1010.5 |
| 20260508210050 | 75 | 133 | 1.0 | 8.0 | 0.00 | 0.83 | 0.83 | 85 | 1010.6 |
| 20260508205536 | 75 | 127 | 1.0 | 8.0 | 0.00 | 0.83 | 0.83 | 84 | 1010.5 |
| 20260508205037 | 75 | 132 | 2.0 | 8.0 | 0.00 | 0.83 | 0.83 | 84 | 1010.6 |
| 20260508204552 | 75 | 140 | 3.0 | 6.0 | 0.00 | 0.83 | 0.83 | 85 | 1010.7 |
| 20260508204039 | 75 | 97 | 2.0 | 9.0 | 0.00 | 0.83 | 0.83 | 84 | 1010.7 |
| 20260508203536 | 75 | 57 | 3.0 | 9.0 | 0.00 | 0.83 | 0.83 | 85 | 1010.8 |
| 20260508203053 | 75 | 70 | 3.0 | 7.0 | 0.00 | 0.83 | 0.83 | 84 | 1010.9 |
| 20260508202538 | 75 | 111 | 3.0 | 7.0 | 0.00 | 0.83 | 0.83 | 84 | 1010.9 |
| 20260508202037 | 74 | 117 | 0.0 | 6.0 | 0.00 | 0.83 | 0.83 | 85 | 1011.1 |
| 20260508201547 | 74 | 150 | 2.0 | 5.0 | 0.00 | 0.83 | 0.83 | 85 | 1011.1 |
| 20260508201036 | 74 | 61 | 0.0 | 5.0 | 0.00 | 0.83 | 0.83 | 86 | 1011.3 |
| 20260508200540 | 74 | 0 | 1.0 | 5.0 | 0.00 | 0.83 | 0.83 | 86 | 1011.3 |
| 20260508200104 | 73 | 109 | 3.0 | 5.0 | 0.00 | 0.83 | 0.83 | 86 | 1011.4 |
| 20260508195539 | 73 | 5 | 2.0 | 4.0 | 0.00 | 0.83 | 0.83 | 86 | 1011.5 |
| 20260508195041 | 73 | 34 | 2.0 | 5.0 | 0.00 | 0.83 | 0.83 | 86 | 1011.8 |
| 20260508194553 | 73 | 74 | 2.0 | 5.0 | 0.00 | 0.83 | 0.83 | 86 | 1011.8 |
| 20260508194038 | 73 | 65 | 2.0 | 5.0 | 0.00 | 0.83 | 0.83 | 86 | 1011.7 |
| 20260508193540 | 73 | 0 | 0.0 | 4.0 | 0.00 | 0.83 | 0.83 | 87 | 1011.9 |
| 20260508193054 | 72 | 44 | 1.0 | 5.0 | 0.00 | 0.83 | 0.83 | 87 | 1012.0 |
| 20260508192540 | 72 | 0 | 3.0 | 6.0 | 0.00 | 0.83 | 0.83 | 87 | 1012.0 |
| 20260508192037 | 72 | 355 | 0.0 | 6.0 | 0.00 | 0.83 | 0.83 | 87 | 1012.1 |
| 20260508191552 | 72 | 103 | 1.0 | 5.0 | 0.00 | 0.83 | 0.83 | 88 | 1012.2 |
| 20260508191039 | 71 | 0 | 0.0 | 5.0 | 0.00 | 0.83 | 0.83 | 88 | 1012.2 |
| 20260508190540 | 71 | 13 | 3.0 | 5.0 | 0.00 | 0.83 | 0.83 | 88 | 1012.2 |
| 20260508190052 | 71 | 355 | 2.0 | 5.0 | 0.00 | 0.83 | 0.83 | 89 | 1012.3 |
| 20260508185540 | 71 | 103 | 1.0 | 5.0 | 0.00 | 0.83 | 0.83 | 90 | 1012.3 |
| 20260508185040 | 70 | 92 | 1.0 | 6.0 | 0.00 | 0.83 | 0.83 | 90 | 1012.2 |
| 20260508184552 | 70 | 32 | 3.0 | 6.0 | 0.00 | 0.83 | 0.83 | 90 | 1012.4 |
| 20260508184039 | 70 | 94 | 2.0 | 7.0 | 0.00 | 0.83 | 0.83 | 90 | 1012.4 |
| 20260508183539 | 70 | 101 | 3.0 | 8.0 | 0.00 | 0.83 | 0.83 | 90 | 1012.5 |
| 20260508183049 | 69 | 33 | 4.0 | 8.0 | 0.00 | 0.83 | 0.83 | 91 | 1012.5 |
| 20260508182538 | 69 | 55 | 3.0 | 9.0 | 0.00 | 0.83 | 0.83 | 91 | 1012.5 |
| 20260508182039 | 69 | 38 | 5.0 | 9.0 | 0.00 | 0.83 | 0.83 | 91 | 1012.7 |
| 20260508181552 | 69 | 48 | 4.0 | 8.0 | 0.00 | 0.83 | 0.83 | 91 | 1012.8 |
| 20260508181039 | 69 | 81 | 2.0 | 8.0 | 0.00 | 0.83 | 0.83 | 91 | 1013.0 |
| 20260508180537 | 69 | 35 | 2.0 | 7.0 | 0.00 | 0.83 | 0.83 | 92 | 1013.0 |
| 20260508180053 | 68 | 58 | 3.0 | 8.0 | 0.00 | 0.83 | 0.83 | 92 | 1013.1 |
| 20260508175537 | 68 | 83 | 4.0 | 10.0 | 0.00 | 0.83 | 0.83 | 93 | 1013.0 |
| 20260508175036 | 68 | 0 | 4.0 | 10.0 | 0.00 | 0.83 | 0.83 | 93 | 1013.0 |
| 20260508174600 | 67 | 23 | 6.0 | 10.0 | 0.00 | 0.83 | 0.83 | 92 | 1013.1 |
| 20260508174038 | 67 | 34 | 5.0 | 9.0 | 0.00 | 0.83 | 0.83 | 92 | 1013.1 |
| 20260508173537 | 67 | 30 | 4.0 | 11.0 | 0.00 | 0.83 | 0.83 | 93 | 1013.2 |
| 20260508173048 | 67 | 35 | 5.0 | 11.0 | 0.00 | 0.83 | 0.83 | 93 | 1013.2 |
| 20260508172539 | 67 | 39 | 8.0 | 11.0 | 0.00 | 0.83 | 0.83 | 93 | 1013.3 |
| 20260508172039 | 67 | 41 | 5.0 | 10.0 | 0.00 | 0.83 | 0.83 | 93 | 1013.4 |
| 20260508171550 | 67 | 34 | 6.0 | 10.0 | 0.00 | 0.83 | 0.83 | 93 | 1013.4 |
| 20260508171039 | 67 | 49 | 3.0 | 8.0 | 0.00 | 0.83 | 0.83 | 93 | 1013.4 |
| 20260508170537 | 67 | 34 | 4.0 | 9.0 | 0.00 | 0.83 | 0.83 | 93 | 1013.6 |
| 20260508170052 | 67 | 77 | 4.0 | 9.0 | 0.00 | 0.83 | 0.83 | 93 | 1013.7 |
| 20260508165536 | 67 | 24 | 5.0 | 9.0 | 0.00 | 0.83 | 0.83 | 93 | 1013.6 |
| 20260508165037 | 66 | 11 | 4.0 | 8.0 | 0.00 | 0.83 | 0.83 | 94 | 1013.7 |
| 20260508164547 | 66 | 82 | 3.0 | 6.0 | 0.00 | 0.83 | 0.83 | 93 | 1013.7 |
| 20260508164037 | 66 | 48 | 3.0 | 6.0 | 0.00 | 0.83 | 0.83 | 93 | 1013.6 |
| 20260508163536 | 66 | 32 | 2.0 | 5.0 | 0.00 | 0.83 | 0.83 | 93 | 1013.8 |
| 20260508163048 | 66 | 63 | 3.0 | 5.0 | 0.00 | 0.83 | 0.83 | 93 | 1013.9 |
| 20260508162537 | 66 | 44 | 3.0 | 5.0 | 0.00 | 0.83 | 0.83 | 93 | 1013.8 |
| 20260508162036 | 66 | 63 | 2.0 | 6.0 | 0.00 | 0.83 | 0.83 | 94 | 1013.8 |
| 20260508161551 | 66 | 47 | 2.0 | 6.0 | 0.00 | 0.83 | 0.83 | 94 | 1013.9 |
| 20260508161037 | 66 | 32 | 2.0 | 9.0 | 0.00 | 0.83 | 0.83 | 94 | 1013.8 |
| 20260508160536 | 65 | 38 | 3.0 | 9.0 | 0.00 | 0.83 | 0.83 | 94 | 1013.8 |
| 20260508160053 | 65 | 69 | 3.0 | 8.0 | 0.00 | 0.83 | 0.83 | 94 | 1013.8 |
| 20260508155537 | 65 | 36 | 2.0 | 8.0 | 0.00 | 0.83 | 0.83 | 95 | 1013.9 |
| 20260508155036 | 65 | 62 | 4.0 | 8.0 | 0.00 | 0.83 | 0.83 | 94 | 1014.0 |
| 20260508154553 | 65 | 49 | 2.0 | 8.0 | 0.00 | 0.83 | 0.83 | 95 | 1014.0 |
| 20260508154036 | 64 | 49 | 2.0 | 8.0 | 0.00 | 0.83 | 0.83 | 95 | 1014.0 |
| 20260508153537 | 64 | 34 | 5.0 | 8.0 | 0.00 | 0.83 | 0.83 | 95 | 1014.1 |
| 20260508153050 | 64 | 19 | 4.0 | 7.0 | 0.00 | 0.83 | 0.83 | 95 | 1014.1 |
| 20260508152536 | 63 | 72 | 1.0 | 4.0 | 0.00 | 0.83 | 0.83 | 95 | 1014.5 |
| 20260508152036 | 63 | 72 | 2.0 | 4.0 | 0.00 | 0.83 | 0.83 | 95 | 1014.5 |
| 20260508151558 | 63 | 72 | 2.0 | 4.0 | 0.00 | 0.83 | 0.83 | 95 | 1014.6 |
| 20260508151036 | 63 | 0 | 0.0 | 3.0 | 0.00 | 0.83 | 0.83 | 94 | 1014.7 |
| 20260508150537 | 63 | 102 | 1.0 | 3.0 | 0.00 | 0.83 | 0.83 | 95 | 1014.6 |
| 20260508150049 | 63 | 102 | 0.0 | 4.0 | 0.00 | 0.83 | 0.83 | 95 | 1014.7 |
| 20260508145535 | 63 | 102 | 1.0 | 4.0 | 0.01 | 0.83 | 0.83 | 95 | 1014.8 |
| 20260508145037 | 63 | 0 | 0.0 | 6.0 | 0.01 | 0.83 | 0.83 | 95 | 1014.7 |
| 20260508144550 | 62 | 102 | 0.0 | 6.0 | 0.03 | 0.83 | 0.83 | 95 | 1014.6 |
| 20260508144037 | 63 | 75 | 2.0 | 6.0 | 0.03 | 0.83 | 0.83 | 95 | 1014.6 |
| 20260508143537 | 62 | 115 | 1.0 | 6.0 | 0.03 | 0.83 | 0.83 | 95 | 1014.7 |
| 20260508143052 | 62 | 123 | 2.0 | 7.0 | 0.03 | 0.83 | 0.83 | 95 | 1014.6 |
| 20260508142534 | 62 | 123 | 2.0 | 7.0 | 0.03 | 0.83 | 0.83 | 95 | 1014.7 |
| 20260508142037 | 62 | 104 | 3.0 | 7.0 | 0.03 | 0.83 | 0.83 | 95 | 1014.7 |
| 20260508141552 | 62 | 169 | 2.0 | 7.0 | 0.03 | 0.83 | 0.83 | 94 | 1014.7 |
| 20260508141036 | 61 | 115 | 2.0 | 6.0 | 0.03 | 0.83 | 0.83 | 94 | 1014.7 |
| 20260508140536 | 61 | 94 | 2.0 | 6.0 | 0.03 | 0.83 | 0.83 | 94 | 1014.7 |
| 20260508140057 | 61 | 0 | 1.0 | 6.0 | 0.03 | 0.83 | 0.83 | 94 | 1014.7 |
| 20260508135538 | 61 | 105 | 2.0 | 6.0 | 0.02 | 0.82 | 0.82 | 94 | 1014.8 |
| 20260508135037 | 61 | 153 | 1.0 | 6.0 | 0.02 | 0.82 | 0.82 | 94 | 1014.7 |
| 20260508134552 | 61 | 153 | 1.0 | 6.0 | 0.00 | 0.80 | 0.80 | 94 | 1015.0 |
| 20260508134037 | 61 | 153 | 2.0 | 6.0 | 0.00 | 0.80 | 0.80 | 94 | 1014.9 |
| 20260508133537 | 61 | 88 | 1.0 | 6.0 | 0.00 | 0.80 | 0.80 | 94 | 1014.8 |
| 20260508133055 | 61 | 121 | 3.0 | 8.0 | 0.00 | 0.80 | 0.80 | 94 | 1014.6 |
| 20260508132537 | 61 | 49 | 2.0 | 8.0 | 0.01 | 0.80 | 0.80 | 94 | 1014.6 |
| 20260508132036 | 61 | 49 | 3.0 | 8.0 | 0.02 | 0.80 | 0.80 | 94 | 1014.5 |
| 20260508131550 | 61 | 67 | 2.0 | 9.0 | 0.07 | 0.80 | 0.80 | 94 | 1014.6 |
| 20260508131037 | 61 | 107 | 3.0 | 9.0 | 0.12 | 0.80 | 0.80 | 94 | 1014.5 |
| 20260508130539 | 61 | 108 | 4.0 | 8.0 | 0.16 | 0.80 | 0.80 | 94 | 1014.6 |
| 20260508125537 | 61 | 88 | 1.0 | 8.0 | 0.18 | 0.80 | 0.80 | 93 | 1014.5 |
| 20260508125037 | 61 | 121 | 3.0 | 8.0 | 0.18 | 0.80 | 0.80 | 93 | 1014.7 |
| 20260508124553 | 61 | 146 | 4.0 | 8.0 | 0.20 | 0.80 | 0.80 | 93 | 1014.7 |
| 20260508124041 | 60 | 103 | 2.0 | 8.0 | 0.26 | 0.80 | 0.80 | 93 | 1014.4 |
| 20260508123536 | 60 | 39 | 4.0 | 9.0 | 0.44 | 0.80 | 0.80 | 93 | 1014.2 |
| 20260508123055 | 61 | 120 | 3.0 | 9.0 | 0.66 | 0.80 | 0.80 | 93 | 1014.0 |
| 20260508122536 | 61 | 120 | 3.0 | 6.0 | 0.77 | 0.79 | 0.79 | 93 | 1014.2 |
| 20260508122036 | 61 | 0 | 1.0 | 4.0 | 0.77 | 0.78 | 0.78 | 92 | 1014.9 |
| 20260508121546 | 61 | 0 | 0.0 | 8.0 | 0.72 | 0.72 | 0.72 | 92 | 1015.2 |
| 20260508121037 | 61 | 101 | 3.0 | 10.0 | 0.67 | 0.67 | 0.67 | 92 | 1015.3 |
| 20260508120537 | 61 | 312 | 4.0 | 10.0 | 0.64 | 0.64 | 0.64 | 92 | 1015.4 |
| 20260508120050 | 61 | 331 | 7.0 | 10.0 | 0.63 | 0.63 | 0.63 | 92 | 1015.1 |
| 20260508115536 | 61 | 5 | 4.0 | 7.0 | 0.62 | 0.62 | 0.62 | 92 | 1014.9 |
| 20260508115039 | 61 | 43 | 3.0 | 5.0 | 0.62 | 0.62 | 0.62 | 91 | 1015.0 |
| 20260508114552 | 61 | 302 | 1.0 | 4.0 | 0.60 | 0.60 | 0.60 | 91 | 1015.0 |